Location: *
(49.7649°S, 165.2074°W)
Time: 13:45:52
(UTC+00:00)

Daily predictions for brighter satellites

Satellite Brightness Start Highest point End
(mag) Time Altitude Azimuth Time Altitude Azimuth Time Altitude Azimuth
MSX 3.8 12:02:07 24° N 12:05:48 78° WNW 12:11:40 10° SSW
Cosmos 1400 Rocket 3.5 12:03:16 10° SSW 12:07:07 40° W 12:08:16 32° NW
Cosmos 158 Rocket 3.8 12:04:18 10° SSW 12:09:15 72° WNW 12:12:09 24° N
Cosmos 1782 Rocket 4.5 12:08:16 21° NNE 12:10:57 44° E 12:15:17 10° SSE
Cosmos 1486 Rocket 4.0 12:10:36 28° NNW 12:13:31 89° NE 12:18:58 10° SSE
Cosmos 2360 Rocket 4.3 12:10:40 10° SSW 12:15:33 28° SE 12:20:25 10° ENE
Cosmos 1408 2.3 12:12:21 10° SSW 12:15:40 66° W 12:16:33 43° NNW
COSMOS 2441 4.4 12:12:33 21° NNE 12:15:52 88° ESE 12:20:49 10° SSW
Cosmos 44 Rocket 4.4 12:14:08 21° NNE 12:16:16 30° ENE 12:20:20 10° ESE
Meteor 2-5 Rocket 4.4 12:11:39 10° SSW 12:17:05 41° W 12:19:55 24° NW
CZ-2C R/B 4.1 12:13:56 10° NE 12:19:18 50° ESE 12:24:57 10° S
Cosmos 1953 2.8 12:22:03 24° NNE 12:24:13 52° E 12:28:08 10° SSE
USA 229 DEB 4.4 12:21:21 10° SW 12:28:09 53° SE 12:34:19 10° ENE
USA 229 4.5 12:21:25 10° SW 12:28:12 53° SE 12:34:22 10° ENE
Meteor 1-16 Rocket 4.3 12:24:52 22° N 12:28:27 77° E 12:34:10 10° SSE
USA 306 3.7 12:28:14 23° NNE 12:28:49 24° NE 12:31:47 10° E
Cosmos 1975 Rocket 3.4 12:24:31 10° S 12:28:55 62° ESE 12:32:31 15° NNE
ISS -1.6 12:30:57 15° NE 12:31:13 15° NE 12:33:12 10° ENE
Cosmos 2322 Rocket 3.5 12:26:31 10° SSW 12:31:55 42° SE 12:37:16 10° ENE
Cosmos 1867 3.5 12:27:03 10° SW 12:32:24 62° WNW 12:37:42 10° NNE
Cosmos 1315 Rocket 2.8 12:28:42 10° SSW 12:32:46 87° ESE 12:35:25 21° NNE
Cosmos 1697 Rocket 4.0 12:28:42 10° SW 12:32:59 22° W 12:34:49 19° NW
Cosmos 1777 Rocket 4.2 12:32:58 22° N 12:36:17 67° ENE 12:41:32 10° SSE
Cosmos 2333 Rocket 4.1 12:31:27 10° SSW 12:36:31 31° SE 12:41:34 10° ENE
Cosmos 1328 4.0 12:33:07 10° S 12:37:04 69° E 12:40:04 17° NNE
Cosmos 1908 Rocket 3.9 12:35:50 26° NNW 12:38:13 57° WSW 12:42:43 10° S
Genesis I 3.0 12:36:11 10° SW 12:39:54 67° NW 12:43:23 11° NNE
NOSS 3-1 (A) 3.3 12:34:07 10° SW 12:40:52 79° NW 12:46:17 10° NE
Cosmos 1703 4.4 12:37:53 10° SSW 12:41:13 27° W 12:42:28 23° WNW
NOSS 3-1 (C) 3.7 12:35:59 10° SW 12:42:05 43° WNW 12:46:03 16° N
ADEOS II 2.4 12:39:42 21° N 12:43:04 52° W 12:48:17 10° SSW
USA 215 4.5 12:42:47 18° NW 12:43:49 19° WNW 12:48:17 10° W
CZ-2C R/B 3.9 12:39:10 10° NE 12:43:55 38° ESE 12:48:39 10° S
Cosmos 1633 2.4 12:41:38 10° SSW 12:44:38 49° W 12:45:38 33° NNW
Cosmos 2098 Rocket 2.8 12:43:49 29° WNW 12:44:45 39° WSW 12:47:43 10° S
Thor Agena Rocket 3.8 12:40:29 10° NNE 12:45:35 70° ESE 12:50:49 10° SSW
Cosmos 1503 Rocket 4.1 12:47:51 21° NNW 12:51:18 73° WSW 12:56:34 10° SSE
SL-16 R/B 2.3 12:47:51 10° SSW 12:53:38 81° ESE 12:59:20 10° NNE
Resurs 1-4 Rocket 3.2 12:51:34 19° NW 12:54:07 28° W 12:58:41 10° SW
COSMOS 2406 3.5 12:53:14 19° NW 12:57:28 63° WSW 13:03:15 10° SSE
IDEFIX/ARIANE 42P 3.8 12:56:11 18° NW 12:58:44 26° W 13:03:11 10° SW
Lacrosse 5 rocket 0.9 12:55:16 10° WSW 12:58:55 69° NW 13:02:38 10° NE
ATLAS CENTAUR R/B 1.4 12:54:27 10° SW 12:58:56 69° NW 13:03:17 10° NNE
Cosmos 1980 Rocket 3.3 12:57:15 10° SW 13:01:55 27° WNW 13:04:48 18° NW
Cosmos 1354 Rocket 4.1 12:58:17 20° NNW 13:02:03 76° WSW 13:07:22 10° SSE
Cosmos 1892 2.8 12:58:50 10° SSW 13:02:27 53° W 13:04:43 20° NNW
USA 281 3.7 12:57:08 10° NE 13:03:38 65° ESE 13:10:12 10° SSW
CZ-2D R/B 3.4 13:01:05 17° NW 13:03:54 25° W 13:08:29 10° SW
CZ-4 R/B 3.8 12:59:46 13° N 13:03:58 68° WNW 13:08:41 10° SSW
ALOS 2.2 13:01:30 12° N 13:05:54 74° WNW 13:10:39 10° SSW
METEOR-M 4.5 13:03:46 10° NNE 13:09:07 71° ESE 13:14:33 10° S
BREEZE-M DEB (TANK) 2.1 13:10:17 10° W 13:14:20 84° NNW 13:16:41 10° E
Envisat 3.6 13:10:20 10° NNE 13:15:23 62° ESE 13:20:29 10° S
Cosmos 1825 2.3 13:12:09 10° SSW 13:15:40 49° W 13:18:15 17° NNW
Cosmos 1300 Rocket 3.8 13:12:28 18° NNW 13:15:45 59° WSW 13:20:15 10° S
Geosat 4.0 13:11:20 10° NNE 13:16:24 88° WNW 13:21:31 10° SSW
Meteor 1-4 Rocket 2.2 13:16:02 10° SSW 13:19:19 88° W 13:22:32 10° N
Cosmos 1727 Rocket 4.0 13:16:30 12° N 13:22:21 85° W 13:28:43 10° S
ATLAS 3B R/B 3.1 13:17:46 10° SW 13:23:19 33° WNW 13:28:52 10° N
Cosmos 304 Rocket 4.0 13:19:21 13° N 13:23:35 68° ENE 13:28:25 10° SSE
Cosmos 990 Rocket 4.3 13:19:58 12° N 13:24:46 64° ENE 13:30:01 10° SSE
FENGYUN 3A 4.3 13:20:37 14° NNW 13:24:50 37° W 13:29:55 10° SSW
Cosmos 1025 Rocket 4.3 13:21:38 10° SSW 13:25:18 25° W 13:28:00 15° NW
USA 308 2.5 13:25:27 12° W 13:27:36 47° SSW 13:30:22 10° ESE
Cosmos 1455 2.2 13:26:21 16° NNW 13:29:15 61° WSW 13:32:56 10° S
IRS-1D 3.6 13:24:40 10° NNE 13:29:58 82° WNW 13:35:25 10° SSW
SJ 16-02 4.0 13:32:05 10° SW 13:32:45 10° SW 13:33:24 10° SSW
YAOGAN 6 3.2 13:29:37 10° NNE 13:32:54 53° ESE 13:36:16 10° S
Sich 1 Rocket 3.9 13:29:31 10° N 13:34:06 72° E 13:38:45 10° SSE
USA 307 2.1 13:34:20 19° NNW 13:35:39 38° NNE 13:37:48 10° ESE
Cosmos 2278 4.4 13:33:29 10° SW 13:38:38 35° WNW 13:43:45 10° N
USA 305 2.0 13:37:58 18° NNW 13:39:04 32° NNE 13:40:53 10° ESE
BREEZE M DEB (TANK) 1.9 13:38:32 10° W 13:40:42 85° N 13:44:24 10° E
Cosmos 371 Rocket 3.4 13:36:53 13° NNW 13:41:18 69° WSW 13:46:16 10° SSE
Cosmos 2082 Rocket 3.4 13:37:38 10° WNW 13:42:46 33° SW 13:47:56 10° SSE
Cosmos 2173 Rocket 4.0 13:37:25 10° SSW 13:43:37 73° W 13:49:42 10° N
Cosmos 1441 Rocket 3.7 13:47:38 10° N 13:51:29 63° E 13:55:21 10° SSE
Cosmos 1802 Rocket 4.1 13:45:17 10° S 13:51:47 83° W 13:58:08 10° N
Cosmos 2100 Rocket 4.1 13:46:39 10° SSW 13:52:47 60° W 13:58:51 10° N
ATLAS 2AS CENTAUR R/B 4.0 13:48:41 10° W 13:54:51 35° SSW 14:01:21 10° SE
Cosmos 44 Rocket 3.8 13:53:01 10° WNW 13:57:34 48° SW 14:02:06 10° SSE
Okean 2 Rocket 3.2 13:53:42 10° NNW 13:58:12 72° WSW 14:02:43 10° S
CZ-2C R/B 4.2 13:54:27 10° NNW 13:59:21 31° W 14:04:29 10° SSW
COBE Rocket 4.0 13:54:54 10° N 13:59:28 53° W 14:04:08 10° SSW
Cosmos 2360 Rocket 2.2 13:54:22 10° SSW 14:00:03 68° WNW 14:05:41 10° NNE
Cosmos 1953 4.3 13:57:58 10° WNW 14:00:35 17° WSW 14:03:13 10° SSW
Cosmos 1242 Rocket 2.7 13:57:24 10° S 14:00:43 66° ESE 14:03:59 10° NNE
Cosmos 2061 Rocket 4.2 13:55:16 10° S 14:01:36 79° E 14:07:50 10° NNE
USA 306 2.6 14:00:27 10° WNW 14:03:58 79° SSW 14:07:47 10° ESE
IRIDIUM 114 4.4 14:00:22 10° S 14:05:43 89° E 14:11:00 10° N
Cosmos 2219 Rocket 2.5 14:01:39 10° SSW 14:07:19 76° ESE 14:12:57 10° NE
ISS -3.5 14:04:05 10° WNW 14:07:28 62° NNE 14:10:52 10° ESE
Cosmos 921 Rocket 3.3 14:05:11 10° SSW 14:09:28 73° ESE 14:13:40 10° NNE
H-2A R/B 4.4 14:06:33 10° NE 14:09:47 35° ESE 14:13:04 10° S
Cosmos 1725 Rocket 4.1 14:05:19 10° SSW 14:11:44 74° W 14:18:04 10° N
Meteor 1-28 Rocket 3.9 14:08:38 10° SSE 14:12:17 51° E 14:15:51 10° N
MOZ.5/SAFIR/RUBIN 5/SL-8 4.4 14:08:32 10° S 14:13:03 44° WSW 14:17:30 10° NW
NOAA 11 4.4 14:08:48 10° N 14:14:15 59° W 14:19:47 10° SSW
IRIDIUM 103 4.4 14:09:33 10° S 14:14:53 77° W 14:20:08 10° N
Cosmos 2322 Rocket 2.7 14:10:42 10° SW 14:15:57 40° WNW 14:21:09 10° N
USA 229 DEB 3.8 14:12:41 10° SW 14:18:59 45° WNW 14:24:48 10° N
USA 229 3.8 14:12:44 10° SW 14:19:04 45° WNW 14:24:53 10° N
